| time (UTC) | temp C | wind direction | speed KPH | gust KPH | rain 1hr cm | rain 24hr cm | rain mn cm | humidity % | barometer mb |
| 20260906092901 | 21 | 313 | 0.0 | 0.0 | 0.00 | 0.00 | 0.00 | 95 | 1011.5 |
| 20260906092401 | 21 | 313 | 0.0 | 0.0 | 0.00 | 0.00 | 0.00 | 95 | 1011.5 |
| 20260906091856 | 21 | 313 | 0.0 | 0.0 | 0.00 | 0.00 | 0.00 | 95 | 1011.5 |
| 20260906091352 | 21 | 313 | 0.0 | 0.0 | 0.00 | 0.00 | 0.00 | 95 | 1011.4 |
| 20260906090848 | 21 | 313 | 0.0 | 0.0 | 0.00 | 0.00 | 0.00 | 95 | 1011.3 |
| 20260906090347 | 21 | 313 | 0.0 | 0.0 | 0.00 | 0.00 | 0.00 | 95 | 1011.3 |
| 20260906085842 | 21 | 313 | 0.0 | 0.0 | 0.00 | 0.00 | 0.00 | 95 | 1011.4 |
| 20260906085341 | 21 | 313 | 0.0 | 0.0 | 0.00 | 0.00 | 0.00 | 96 | 1011.2 |
| 20260906084836 | 21 | 313 | 0.0 | 0.0 | 0.00 | 0.00 | 0.00 | 97 | 1011.2 |
| 20260906084336 | 21 | 313 | 0.0 | 0.0 | 0.00 | 0.00 | 0.00 | 97 | 1011.3 |
| 20260906083831 | 21 | 313 | 0.0 | 0.0 | 0.00 | 0.00 | 0.00 | 97 | 1011.3 |
| 20260906083327 | 21 | 313 | 0.0 | 0.0 | 0.00 | 0.00 | 0.00 | 98 | 1011.2 |
| 20260906082826 | 21 | 313 | 0.0 | 0.0 | 0.00 | 0.00 | 0.00 | 98 | 1011.3 |
| 20260906082321 | 21 | 313 | 0.0 | 0.0 | 0.00 | 0.00 | 0.00 | 98 | 1011.2 |
| 20260906081817 | 21 | 313 | 0.0 | 0.0 | 0.00 | 0.00 | 0.00 | 98 | 1011.3 |
| 20260906081313 | 21 | 313 | 0.0 | 0.0 | 0.00 | 0.00 | 0.00 | 97 | 1011.2 |
| 20260906080809 | 21 | 313 | 0.0 | 0.0 | 0.00 | 0.00 | 0.00 | 97 | 1011.1 |
| 20260906080305 | 21 | 313 | 0.0 | 0.0 | 0.00 | 0.00 | 0.00 | 97 | 1011.2 |
| 20260906075804 | 21 | 313 | 0.0 | 0.0 | 0.00 | 0.00 | 0.00 | 97 | 1011.2 |
| 20260906075306 | 21 | 313 | 0.0 | 0.0 | 0.00 | 0.00 | 0.00 | 96 | 1011.1 |
| 20260906074759 | 22 | 313 | 0.0 | 0.0 | 0.00 | 0.00 | 0.00 | 96 | 1010.9 |
| 20260906074259 | 22 | 313 | 0.0 | 0.0 | 0.00 | 0.00 | 0.00 | 95 | 1010.9 |
| 20260906073758 | 22 | 313 | 0.0 | 0.0 | 0.00 | 0.00 | 0.00 | 95 | 1011.1 |
| 20260906073253 | 22 | 313 | 0.0 | 0.0 | 0.00 | 0.00 | 0.00 | 94 | 1010.9 |
| 20260906072749 | 22 | 313 | 0.0 | 0.0 | 0.00 | 0.00 | 0.00 | 94 | 1010.9 |
| 20260906072244 | 22 | 313 | 1.6 | 1.6 | 0.00 | 0.00 | 0.00 | 94 | 1011.1 |
| 20260906071741 | 22 | 313 | 0.0 | 0.0 | 0.00 | 0.00 | 0.00 | 93 | 1011.1 |
| 20260906071240 | 22 | 313 | 0.0 | 0.0 | 0.00 | 0.00 | 0.00 | 92 | 1011.2 |
| 20260906070737 | 22 | 313 | 0.0 | 0.0 | 0.00 | 0.00 | 0.00 | 91 | 1011.2 |
| 20260906070233 | 22 | 313 | 0.0 | 0.0 | 0.00 | 0.00 | 0.00 | 91 | 1011.1 |
| 20260906065732 | 22 | 313 | 0.0 | 0.0 | 0.00 | 0.00 | 0.00 | 90 | 1011.2 |
| 20260906065227 | 22 | 313 | 0.0 | 0.0 | 0.00 | 0.00 | 0.00 | 89 | 1011.3 |
| 20260906064723 | 23 | 313 | 0.0 | 0.0 | 0.00 | 0.00 | 0.00 | 89 | 1011.3 |
| 20260906064218 | 23 | 313 | 0.0 | 0.0 | 0.00 | 0.00 | 0.00 | 89 | 1011.3 |
| 20260906063713 | 23 | 313 | 0.0 | 0.0 | 0.00 | 0.00 | 0.00 | 87 | 1011.2 |
| 20260906063209 | 23 | 313 | 0.0 | 0.0 | 0.00 | 0.00 | 0.00 | 87 | 1011.3 |
| 20260906062705 | 23 | 313 | 0.0 | 0.0 | 0.00 | 0.00 | 0.00 | 87 | 1011.3 |
| 20260906062203 | 23 | 313 | 0.0 | 0.0 | 0.00 | 0.00 | 0.00 | 87 | 1011.3 |
| 20260906061659 | 23 | 313 | 0.0 | 0.0 | 0.00 | 0.00 | 0.00 | 87 | 1011.2 |
| 20260906061155 | 23 | 314 | 0.0 | 0.0 | 0.00 | 0.00 | 0.00 | 87 | 1011.3 |
| 20260906060651 | 23 | 320 | 0.0 | 0.0 | 0.00 | 0.00 | 0.00 | 87 | 1011.3 |
| 20260906060148 | 23 | 322 | 0.0 | 0.0 | 0.00 | 0.00 | 0.00 | 88 | 1011.3 |
| 20260906055643 | 23 | 248 | 0.0 | 0.0 | 0.00 | 0.00 | 0.00 | 90 | 1011.5 |
| 20260906055138 | 23 | 221 | 0.0 | 0.0 | 0.00 | 0.00 | 0.00 | 92 | 1011.5 |
| 20260906054634 | 23 | 221 | 0.0 | 0.0 | 0.00 | 0.00 | 0.00 | 93 | 1011.5 |
| 20260906054128 | 23 | 221 | 0.0 | 0.0 | 0.00 | 0.00 | 0.00 | 94 | 1011.7 |
| 20260906053626 | 22 | 221 | 1.6 | 1.6 | 0.00 | 0.00 | 0.00 | 97 | 1011.7 |
| 20260906053126 | 22 | 221 | 0.0 | 0.0 | 0.00 | 0.00 | 0.00 | 98 | 1011.9 |
| 20260906052621 | 22 | 221 | 0.0 | 0.0 | 0.00 | 0.00 | 0.00 | 97 | 1012.0 |
| 20260906052118 | 22 | 221 | 0.0 | 0.0 | 0.00 | 0.00 | 0.00 | 97 | 1011.9 |
| 20260906051614 | 22 | 221 | 0.0 | 0.0 | 0.00 | 0.00 | 0.00 | 97 | 1011.9 |
| 20260906051109 | 22 | 221 | 0.0 | 0.0 | 0.00 | 0.00 | 0.00 | 97 | 1011.9 |
| 20260906050604 | 22 | 221 | 0.0 | 0.0 | 0.00 | 0.00 | 0.00 | 97 | 1012.1 |
| 20260906050059 | 22 | 221 | 0.0 | 0.0 | 0.00 | 0.00 | 0.00 | 97 | 1012.2 |
| 20260906045557 | 22 | 221 | 0.0 | 0.0 | 0.00 | 0.00 | 0.00 | 96 | 1012.2 |
| 20260906045053 | 22 | 221 | 0.0 | 0.0 | 0.00 | 0.00 | 0.00 | 96 | 1012.2 |
| 20260906044548 | 22 | 221 | 0.0 | 0.0 | 0.00 | 0.00 | 0.00 | 95 | 1012.4 |
| 20260906044043 | 22 | 221 | 0.0 | 0.0 | 0.00 | 0.00 | 0.00 | 94 | 1012.2 |
| 20260906043539 | 23 | 221 | 0.0 | 0.0 | 0.00 | 0.00 | 0.00 | 94 | 1012.2 |
| 20260906043036 | 23 | 222 | 1.6 | 1.6 | 0.00 | 0.00 | 0.00 | 94 | 1012.4 |
| 20260906042534 | 23 | 221 | 0.0 | 0.0 | 0.00 | 0.00 | 0.00 | 94 | 1012.5 |
| 20260906042029 | 23 | 221 | 0.0 | 0.0 | 0.00 | 0.00 | 0.00 | 94 | 1012.3 |
| 20260906041525 | 23 | 221 | 0.0 | 0.0 | 0.00 | 0.00 | 0.00 | 95 | 1012.3 |
| 20260906041025 | 23 | 221 | 0.0 | 0.0 | 0.00 | 0.00 | 0.00 | 94 | 1012.4 |
| 20260906040520 | 23 | 221 | 0.0 | 0.0 | 0.00 | 0.00 | 0.00 | 94 | 1012.5 |
| 20260906040016 | 23 | 221 | 1.6 | 1.6 | 0.00 | 1.09 | 1.09 | 94 | 1012.4 |
| 20260906035511 | 23 | 221 | 0.0 | 0.0 | 0.00 | 1.09 | 1.09 | 95 | 1012.4 |
| 20260906035007 | 23 | 221 | 0.0 | 0.0 | 0.00 | 1.09 | 1.09 | 96 | 1012.4 |
| 20260906034506 | 23 | 221 | 0.0 | 0.0 | 0.00 | 1.09 | 1.09 | 96 | 1012.4 |
| 20260906034001 | 23 | 221 | 1.6 | 1.6 | 0.00 | 1.09 | 1.09 | 96 | 1012.4 |
| 20260906033456 | 23 | 221 | 0.0 | 0.0 | 0.00 | 1.09 | 1.09 | 97 | 1012.2 |
| 20260906032952 | 23 | 221 | 0.0 | 0.0 | 0.00 | 1.09 | 1.09 | 97 | 1012.5 |
| 20260906032449 | 22 | 221 | 0.0 | 0.0 | 0.00 | 1.09 | 1.09 | 98 | 1012.6 |
| 20260906031948 | 22 | 221 | 0.0 | 0.0 | 0.00 | 1.09 | 1.09 | 98 | 1012.6 |
| 20260906031444 | 22 | 221 | 0.0 | 0.0 | 0.00 | 1.09 | 1.09 | 98 | 1012.5 |
| 20260906030939 | 22 | 221 | 0.0 | 0.0 | 0.00 | 1.09 | 1.09 | 98 | 1012.5 |
| 20260906030433 | 22 | 221 | 0.0 | 0.0 | 0.00 | 1.09 | 1.09 | 98 | 1012.3 |
| 20260906025928 | 22 | 221 | 0.0 | 0.0 | 0.00 | 1.09 | 1.09 | 98 | 1012.4 |
| 20260906025422 | 22 | 221 | 0.0 | 0.0 | 0.00 | 1.09 | 1.09 | 98 | 1012.4 |
| 20260906024921 | 22 | 221 | 0.0 | 0.0 | 0.00 | 1.09 | 1.09 | 98 | 1012.5 |
| 20260906024420 | 22 | 221 | 0.0 | 0.0 | 0.00 | 1.09 | 1.09 | 98 | 1012.5 |
| 20260906023916 | 22 | 221 | 0.0 | 0.0 | 0.00 | 1.09 | 1.09 | 98 | 1012.5 |
| 20260906023412 | 22 | 221 | 0.0 | 0.0 | 0.00 | 1.09 | 1.09 | 98 | 1012.5 |
| 20260906022912 | 22 | 221 | 0.0 | 0.0 | 0.00 | 1.09 | 1.09 | 97 | 1012.2 |
| 20260906022407 | 23 | 221 | 1.6 | 1.6 | 0.00 | 1.09 | 1.09 | 97 | 1012.6 |
| 20260906021903 | 23 | 221 | 0.0 | 0.0 | 0.00 | 1.09 | 1.09 | 97 | 1012.4 |
| 20260906021402 | 23 | 221 | 0.0 | 0.0 | 0.00 | 1.09 | 1.09 | 98 | 1012.3 |
| 20260906020857 | 23 | 221 | 0.0 | 0.0 | 0.00 | 1.09 | 1.09 | 98 | 1012.2 |
| 20260906020357 | 23 | 221 | 0.0 | 0.0 | 0.00 | 1.09 | 1.09 | 99 | 1012.2 |
| 20260906015852 | 23 | 221 | 0.0 | 0.0 | 0.00 | 1.09 | 1.09 | 99 | 1012.2 |
| 20260906015351 | 23 | 221 | 0.0 | 0.0 | 0.00 | 1.09 | 1.09 | 98 | 1012.2 |
| 20260906014851 | 22 | 221 | 0.0 | 0.0 | 0.00 | 1.09 | 1.09 | 98 | 1012.0 |
| 20260906014351 | 22 | 221 | 0.0 | 0.0 | 0.00 | 1.09 | 1.09 | 98 | 1012.1 |
| 20260906013847 | 23 | 221 | 0.0 | 0.0 | 0.00 | 1.09 | 1.09 | 98 | 1012.3 |
| 20260906013342 | 23 | 221 | 0.0 | 0.0 | 0.00 | 1.09 | 1.09 | 98 | 1012.3 |
| 20260906012838 | 23 | 221 | 0.0 | 0.0 | 0.00 | 1.09 | 1.09 | 97 | 1012.4 |
| 20260906012332 | 23 | 221 | 0.0 | 0.0 | 0.00 | 1.09 | 1.09 | 97 | 1012.0 |
| 20260906011832 | 23 | 221 | 0.0 | 0.0 | 0.00 | 1.09 | 1.09 | 97 | 1011.8 |
| 20260906011327 | 23 | 221 | 0.0 | 0.0 | 0.00 | 1.09 | 1.09 | 97 | 1011.8 |
| 20260906010823 | 23 | 221 | 0.0 | 1.6 | 0.00 | 1.09 | 1.09 | 97 | 1012.0 |
| 20260906010319 | 23 | 221 | 0.0 | 0.0 | 0.00 | 1.09 | 1.09 | 97 | 1012.0 |
| 20260906005814 | 23 | 221 | 0.0 | 0.0 | 0.00 | 1.09 | 1.09 | 97 | 1011.7 |
| 20260906005313 | 23 | 221 | 0.0 | 0.0 | 0.00 | 1.09 | 1.09 | 97 | 1011.9 |
| 20260906004812 | 23 | 221 | 0.0 | 0.0 | 0.00 | 1.09 | 1.09 | 97 | 1011.7 |
| 20260906004312 | 23 | 221 | 0.0 | 0.0 | 0.00 | 1.09 | 1.09 | 97 | 1011.5 |
| 20260906003807 | 23 | 221 | 0.0 | 0.0 | 0.00 | 1.09 | 1.09 | 97 | 1011.6 |
| 20260906003303 | 23 | 221 | 0.0 | 0.0 | 0.00 | 1.09 | 1.09 | 96 | 1011.6 |
| 20260906002759 | 23 | 221 | 0.0 | 0.0 | 0.00 | 1.09 | 1.09 | 96 | 1011.4 |
| 20260906002257 | 23 | 221 | 0.0 | 0.0 | 0.00 | 1.09 | 1.09 | 96 | 1011.5 |
| 20260906001753 | 23 | 221 | 0.0 | 0.0 | 0.00 | 1.09 | 1.09 | 96 | 1011.5 |
| 20260906001248 | 23 | 221 | 0.0 | 0.0 | 0.00 | 1.09 | 1.09 | 95 | 1011.5 |
| 20260906000744 | 23 | 221 | 0.0 | 0.0 | 0.00 | 1.09 | 1.09 | 94 | 1011.4 |
| 20260906000244 | 23 | 221 | 0.0 | 0.0 | 0.00 | 1.09 | 1.09 | 94 | 1011.3 |
| 20260905235739 | 23 | 221 | 0.0 | 0.0 | 0.00 | 1.09 | 1.09 | 94 | 1011.1 |
| 20260905235238 | 24 | 221 | 0.0 | 0.0 | 0.00 | 1.09 | 1.09 | 93 | 1011.2 |
| 20260905234734 | 24 | 221 | 0.0 | 0.0 | 0.00 | 1.09 | 1.09 | 93 | 1011.1 |
| 20260905234229 | 24 | 221 | 0.0 | 0.0 | 0.00 | 1.09 | 1.09 | 93 | 1011.2 |
| 20260905233725 | 24 | 221 | 0.0 | 0.0 | 0.00 | 1.09 | 1.09 | 92 | 1011.4 |
| 20260905233224 | 25 | 221 | 0.0 | 0.0 | 0.00 | 1.09 | 1.09 | 90 | 1011.2 |
| 20260905232719 | 25 | 221 | 0.0 | 0.0 | 0.00 | 1.09 | 1.09 | 90 | 1011.2 |
| 20260905232214 | 25 | 221 | 0.0 | 0.0 | 0.00 | 1.09 | 1.09 | 89 | 1011.3 |
| 20260905231710 | 25 | 221 | 1.6 | 0.0 | 0.00 | 1.09 | 1.09 | 89 | 1011.1 |
| 20260905231206 | 25 | 221 | 1.6 | 1.6 | 0.00 | 1.09 | 1.09 | 88 | 1011.2 |
| 20260905230701 | 25 | 221 | 0.0 | 0.0 | 0.00 | 1.09 | 1.09 | 86 | 1011.3 |
| 20260905230159 | 25 | 221 | 0.0 | 0.0 | 0.00 | 1.09 | 1.09 | 87 | 1011.4 |
| 20260905225659 | 25 | 221 | 0.0 | 0.0 | 0.00 | 1.09 | 1.09 | 86 | 1011.2 |
| 20260905225154 | 25 | 221 | 0.0 | 0.0 | 0.00 | 1.09 | 1.09 | 85 | 1011.2 |
| 20260905224653 | 25 | 221 | 0.0 | 0.0 | 0.00 | 1.09 | 1.09 | 86 | 1011.2 |
| 20260905224148 | 25 | 222 | 0.0 | 0.0 | 0.00 | 1.09 | 1.09 | 86 | 1010.9 |
| 20260905223645 | 25 | 222 | 0.0 | 0.0 | 0.00 | 1.09 | 1.09 | 86 | 1010.8 |
| 20260905223141 | 25 | 222 | 0.0 | 0.0 | 0.00 | 1.09 | 1.09 | 86 | 1011.0 |
| 20260905222637 | 25 | 222 | 0.0 | 0.0 | 0.00 | 1.09 | 1.09 | 87 | 1010.8 |
| 20260905222131 | 25 | 222 | 0.0 | 0.0 | 0.00 | 1.09 | 1.09 | 88 | 1010.9 |
| 20260905221627 | 25 | 222 | 0.0 | 0.0 | 0.00 | 1.09 | 1.09 | 89 | 1011.0 |
| 20260905221124 | 25 | 222 | 0.0 | 0.0 | 0.00 | 1.09 | 1.09 | 88 | 1011.0 |
| 20260905220619 | 25 | 222 | 0.0 | 0.0 | 0.00 | 1.09 | 1.09 | 89 | 1011.1 |
| 20260905220115 | 25 | 222 | 0.0 | 0.0 | 0.00 | 1.09 | 1.09 | 89 | 1011.0 |
| 20260905215614 | 25 | 221 | 0.0 | 0.0 | 0.00 | 1.09 | 1.09 | 90 | 1010.9 |
| 20260905215110 | 24 | 221 | 1.6 | 1.6 | 0.00 | 1.09 | 1.09 | 91 | 1011.2 |
| 20260905214606 | 24 | 221 | 0.0 | 0.0 | 0.00 | 1.09 | 1.09 | 91 | 1011.2 |
| 20260905214106 | 24 | 212 | 1.6 | 1.6 | 0.00 | 1.09 | 1.09 | 92 | 1011.1 |
| 20260905213601 | 24 | 212 | 0.0 | 0.0 | 0.00 | 1.09 | 1.09 | 92 | 1011.2 |
| 20260905213056 | 24 | 226 | 1.6 | 1.6 | 0.00 | 1.09 | 1.09 | 92 | 1011.5 |
| 20260905212556 | 24 | 223 | 1.6 | 1.6 | 0.00 | 1.09 | 1.09 | 92 | 1011.4 |
| 20260905212056 | 24 | 223 | 0.0 | 0.0 | 0.00 | 1.09 | 1.09 | 93 | 1011.6 |
| 20260905211552 | 24 | 223 | 1.6 | 1.6 | 0.00 | 1.09 | 1.09 | 93 | 1011.4 |
| 20260905211047 | 23 | 223 | 0.0 | 0.0 | 0.00 | 1.09 | 1.09 | 93 | 1011.6 |
| 20260905210543 | 23 | 223 | 0.0 | 0.0 | 0.00 | 1.09 | 1.09 | 94 | 1011.7 |
| 20260905210038 | 23 | 223 | 0.0 | 0.0 | 0.00 | 1.09 | 1.09 | 94 | 1011.6 |
| 20260905205537 | 23 | 223 | 1.6 | 1.6 | 0.00 | 1.09 | 1.09 | 94 | 1011.6 |
| 20260905205036 | 23 | 223 | 1.6 | 1.6 | 0.00 | 1.09 | 1.09 | 93 | 1011.4 |
| 20260905204532 | 23 | 223 | 0.0 | 0.0 | 0.00 | 1.09 | 1.09 | 94 | 1011.7 |
| 20260905204027 | 23 | 223 | 0.0 | 0.0 | 0.00 | 1.09 | 1.09 | 94 | 1011.3 |
| 20260905203526 | 23 | 223 | 0.0 | 0.0 | 0.00 | 1.09 | 1.09 | 94 | 1011.3 |
| 20260905203021 | 23 | 223 | 0.0 | 0.0 | 0.00 | 1.09 | 1.09 | 93 | 1011.0 |
| 20260905202517 | 23 | 222 | 1.6 | 1.6 | 0.00 | 1.09 | 1.09 | 92 | 1011.1 |
| 20260905202012 | 23 | 223 | 1.6 | 1.6 | 0.00 | 1.09 | 1.09 | 93 | 1011.3 |
| 20260905201508 | 23 | 223 | 1.6 | 1.6 | 0.00 | 1.09 | 1.09 | 93 | 1011.4 |
| 20260905201007 | 22 | 223 | 0.0 | 1.6 | 0.00 | 1.09 | 1.09 | 93 | 1011.5 |
| 20260905200503 | 22 | 178 | 0.0 | 0.0 | 0.00 | 1.09 | 1.09 | 94 | 1011.9 |
| 20260905200002 | 22 | 177 | 1.6 | 1.6 | 0.00 | 1.09 | 1.09 | 95 | 1012.1 |
| 20260905195456 | 22 | 177 | 0.0 | 0.0 | 0.00 | 1.09 | 1.09 | 94 | 1012.1 |
| 20260905194952 | 22 | 177 | 1.6 | 1.6 | 0.00 | 1.09 | 1.09 | 94 | 1012.1 |
| 20260905194451 | 22 | 117 | 0.0 | 0.0 | 0.00 | 1.09 | 1.09 | 96 | 1012.0 |
| 20260905193946 | 21 | 117 | 1.6 | 1.6 | 0.00 | 1.09 | 1.09 | 95 | 1011.9 |
| 20260905193446 | 21 | 120 | 0.0 | 0.0 | 0.00 | 1.09 | 1.09 | 95 | 1011.9 |
| 20260905192941 | 21 | 184 | 1.6 | 1.6 | 0.00 | 1.09 | 1.09 | 95 | 1011.8 |
| 20260905192436 | 21 | 186 | 1.6 | 1.6 | 0.00 | 1.09 | 1.09 | 94 | 1011.6 |
| 20260905191932 | 21 | 187 | 1.6 | 1.6 | 0.00 | 1.09 | 1.09 | 93 | 1011.5 |
| 20260905191432 | 21 | 199 | 3.2 | 3.2 | 0.00 | 1.09 | 1.09 | 92 | 1011.7 |
| 20260905190931 | 21 | 99 | 1.6 | 3.2 | 0.18 | 1.09 | 1.09 | 92 | 1012.0 |
| 20260905190429 | 21 | 165 | 1.6 | 1.6 | 0.79 | 1.09 | 1.09 | 94 | 1011.5 |
| 20260905185928 | 21 | 169 | 1.6 | 1.6 | 2.16 | 1.07 | 1.07 | 93 | 1012.3 |
| 20260905185423 | 21 | 180 | 3.2 | 4.8 | 3.78 | 0.94 | 0.94 | 91 | 1012.6 |
| 20260905184922 | 22 | 218 | 1.6 | 1.6 | 4.37 | 0.76 | 0.76 | 90 | 1013.1 |
| 20260905184416 | 23 | 231 | 8.0 | 11.3 | 1.98 | 0.33 | 0.33 | 83 | 1013.4 |
| 20260905183915 | 28 | 270 | 9.7 | 11.3 | 0.00 | 0.00 | 0.00 | 67 | 1013.1 |
| 20260905183410 | 33 | 355 | 8.0 | 11.3 | 0.00 | 0.00 | 0.00 | 48 | 1013.1 |
| 20260905182905 | 34 | 257 | 1.6 | 1.6 | 0.00 | 0.00 | 0.00 | 48 | 1011.7 |
| 20260905182404 | 35 | 280 | 1.6 | 1.6 | 0.00 | 0.00 | 0.00 | 47 | 1011.4 |
| 20260905181900 | 35 | 355 | 1.6 | 1.6 | 0.00 | 0.00 | 0.00 | 46 | 1011.0 |
| 20260905181401 | 36 | 192 | 1.6 | 1.6 | 0.00 | 0.00 | 0.00 | 44 | 1011.4 |
| 20260905180859 | 36 | 234 | 1.6 | 3.2 | 0.00 | 0.00 | 0.00 | 43 | 1011.4 |
| 20260905180354 | 36 | 208 | 0.0 | 0.0 | 0.00 | 0.00 | 0.00 | 43 | 1011.8 |
| 20260905175844 | 36 | 228 | 3.2 | 3.2 | 0.00 | 0.00 | 0.00 | 42 | 1011.7 |
| 20260905175343 | 36 | 212 | 1.6 | 1.6 | 0.00 | 0.00 | 0.00 | 43 | 1012.0 |
| 20260905174839 | 35 | 195 | 3.2 | 3.2 | 0.00 | 0.00 | 0.00 | 45 | 1012.0 |
| 20260905174334 | 35 | 127 | 1.6 | 1.6 | 0.00 | 0.00 | 0.00 | 46 | 1012.0 |
| 20260905173830 | 36 | 20 | 0.0 | 1.6 | 0.00 | 0.00 | 0.00 | 44 | 1012.2 |
| 20260905173326 | 36 | 2 | 1.6 | 3.2 | 0.00 | 0.00 | 0.00 | 42 | 1012.2 |
| 20260905172826 | 36 | 345 | 3.2 | 3.2 | 0.00 | 0.00 | 0.00 | 43 | 1012.6 |
| 20260905172324 | 36 | 57 | 0.0 | 1.6 | 0.00 | 0.00 | 0.00 | 43 | 1012.6 |
| 20260905171820 | 36 | 8 | 1.6 | 3.2 | 0.00 | 0.00 | 0.00 | 44 | 1012.6 |
| 20260905171317 | 36 | 193 | 1.6 | 1.6 | 0.00 | 0.00 | 0.00 | 44 | 1012.6 |
| 20260905170813 | 35 | 212 | 1.6 | 1.6 | 0.00 | 0.00 | 0.00 | 43 | 1012.7 |
| 20260905170309 | 35 | 68 | 3.2 | 3.2 | 0.00 | 0.00 | 0.00 | 45 | 1012.9 |
| 20260905165807 | 36 | 153 | 1.6 | 1.6 | 0.00 | 0.00 | 0.00 | 44 | 1012.8 |
| 20260905165306 | 36 | 252 | 1.6 | 1.6 | 0.00 | 0.00 | 0.00 | 42 | 1012.8 |
| 20260905164803 | 36 | 325 | 1.6 | 1.6 | 0.00 | 0.00 | 0.00 | 43 | 1012.9 |
| 20260905164258 | 35 | 249 | 1.6 | 1.6 | 0.00 | 0.00 | 0.00 | 45 | 1013.0 |
| 20260905163754 | 35 | 20 | 1.6 | 1.6 | 0.00 | 0.00 | 0.00 | 45 | 1013.2 |
| 20260905163250 | 36 | 242 | 4.8 | 4.8 | 0.00 | 0.00 | 0.00 | 44 | 1013.4 |
| 20260905162746 | 35 | 104 | 1.6 | 1.6 | 0.00 | 0.00 | 0.00 | 44 | 1013.1 |
| 20260905162245 | 35 | 239 | 1.6 | 1.6 | 0.00 | 0.00 | 0.00 | 44 | 1013.4 |
| 20260905161740 | 36 | 305 | 1.6 | 1.6 | 0.00 | 0.00 | 0.00 | 42 | 1013.2 |
| 20260905161238 | 35 | 212 | 3.2 | 3.2 | 0.00 | 0.00 | 0.00 | 45 | 1013.6 |
| 20260905160737 | 35 | 222 | 1.6 | 1.6 | 0.00 | 0.00 | 0.00 | 45 | 1013.4 |
| 20260905160237 | 35 | 313 | 1.6 | 1.6 | 0.00 | 0.00 | 0.00 | 44 | 1013.5 |
| 20260905155732 | 35 | 188 | 1.6 | 1.6 | 0.00 | 0.00 | 0.00 | 47 | 1013.6 |
| 20260905155231 | 35 | 197 | 1.6 | 1.6 | 0.00 | 0.00 | 0.00 | 47 | 1013.5 |
| 20260905154725 | 35 | 225 | 0.0 | 0.0 | 0.00 | 0.00 | 0.00 | 47 | 1013.7 |
| 20260905154221 | 35 | 252 | 3.2 | 3.2 | 0.00 | 0.00 | 0.00 | 47 | 1013.7 |
| 20260905153716 | 35 | 227 | 3.2 | 3.2 | 0.00 | 0.00 | 0.00 | 46 | 1013.5 |
| 20260905153212 | 35 | 212 | 3.2 | 3.2 | 0.00 | 0.00 | 0.00 | 47 | 1013.6 |
| 20260905152707 | 34 | 179 | 1.6 | 1.6 | 0.00 | 0.00 | 0.00 | 52 | 1013.7 |
| 20260905152201 | 34 | 193 | 1.6 | 1.6 | 0.00 | 0.00 | 0.00 | 52 | 1013.6 |
| 20260905151701 | 33 | 198 | 1.6 | 0.0 | 0.00 | 0.00 | 0.00 | 53 | 1013.7 |
| 20260905151157 | 33 | 39 | 1.6 | 1.6 | 0.00 | 0.00 | 0.00 | 54 | 1013.8 |
| 20260905150652 | 33 | 294 | 1.6 | 1.6 | 0.00 | 0.00 | 0.00 | 54 | 1013.7 |
| 20260905150150 | 33 | 194 | 1.6 | 1.6 | 0.00 | 0.00 | 0.00 | 55 | 1013.9 |
| 20260905145648 | 33 | 205 | 1.6 | 1.6 | 0.00 | 0.00 | 0.00 | 56 | 1013.7 |
| 20260905145143 | 32 | 236 | 1.6 | 3.2 | 0.00 | 0.00 | 0.00 | 58 | 1013.7 |
| 20260905144637 | 32 | 210 | 1.6 | 1.6 | 0.00 | 0.00 | 0.00 | 58 | 1013.8 |
| 20260905144136 | 32 | 261 | 3.2 | 3.2 | 0.00 | 0.00 | 0.00 | 59 | 1013.8 |
| 20260905143632 | 32 | 200 | 1.6 | 1.6 | 0.00 | 0.00 | 0.00 | 60 | 1013.7 |
| 20260905143132 | 32 | 184 | 1.6 | 1.6 | 0.00 | 0.00 | 0.00 | 60 | 1013.7 |
| 20260905142630 | 31 | 228 | 3.2 | 3.2 | 0.00 | 0.00 | 0.00 | 62 | 1013.7 |
| 20260905142131 | 31 | 242 | 1.6 | 1.6 | 0.00 | 0.00 | 0.00 | 63 | 1013.6 |
| 20260905141630 | 31 | 254 | 1.6 | 3.2 | 0.00 | 0.00 | 0.00 | 62 | 1013.8 |
| 20260905141127 | 31 | 200 | 3.2 | 3.2 | 0.00 | 0.00 | 0.00 | 63 | 1013.9 |
| 20260905140622 | 31 | 196 | 1.6 | 1.6 | 0.00 | 0.00 | 0.00 | 65 | 1013.7 |
| 20260905140121 | 30 | 206 | 1.6 | 1.6 | 0.00 | 0.00 | 0.00 | 64 | 1013.8 |
| 20260905135616 | 30 | 190 | 1.6 | 1.6 | 0.00 | 0.00 | 0.00 | 68 | 1013.9 |
| 20260905135111 | 29 | 189 | 0.0 | 0.0 | 0.00 | 0.00 | 0.00 | 69 | 1013.8 |
| 20260905134606 | 29 | 185 | 1.6 | 1.6 | 0.00 | 0.00 | 0.00 | 70 | 1013.9 |
| 20260905134105 | 29 | 181 | 3.2 | 3.2 | 0.00 | 0.00 | 0.00 | 69 | 1014.1 |
| 20260905133601 | 29 | 215 | 1.6 | 1.6 | 0.00 | 0.00 | 0.00 | 69 | 1014.1 |
| 20260905133100 | 28 | 187 | 0.0 | 0.0 | 0.00 | 0.00 | 0.00 | 71 | 1014.1 |
| 20260905132600 | 28 | 187 | 1.6 | 1.6 | 0.00 | 0.00 | 0.00 | 71 | 1014.2 |
| 20260905132055 | 28 | 186 | 1.6 | 1.6 | 0.00 | 0.00 | 0.00 | 73 | 1014.1 |
| 20260905131550 | 28 | 183 | 1.6 | 1.6 | 0.00 | 0.00 | 0.00 | 74 | 1013.9 |
| 20260905131046 | 27 | 181 | 1.6 | 1.6 | 0.00 | 0.00 | 0.00 | 74 | 1013.9 |
| 20260905130544 | 28 | 170 | 3.2 | 3.2 | 0.00 | 0.00 | 0.00 | 73 | 1014.1 |
| 20260905130040 | 27 | 204 | 0.0 | 0.0 | 0.00 | 0.00 | 0.00 | 74 | 1014.1 |
| 20260905125539 | 27 | 207 | 0.0 | 1.6 | 0.00 | 0.00 | 0.00 | 75 | 1014.2 |
| 20260905125035 | 27 | 179 | 1.6 | 1.6 | 0.00 | 0.00 | 0.00 | 75 | 1014.2 |
| 20260905124531 | 26 | 179 | 1.6 | 1.6 | 0.00 | 0.00 | 0.00 | 77 | 1014.0 |
| 20260905124027 | 26 | 179 | 0.0 | 1.6 | 0.00 | 0.00 | 0.00 | 79 | 1014.2 |
| 20260905123523 | 26 | 179 | 1.6 | 1.6 | 0.00 | 0.00 | 0.00 | 80 | 1014.2 |
| 20260905123020 | 26 | 179 | 1.6 | 1.6 | 0.00 | 0.00 | 0.00 | 81 | 1014.1 |
| 20260905122519 | 25 | 179 | 1.6 | 1.6 | 0.00 | 0.00 | 0.00 | 82 | 1013.9 |
| 20260905122014 | 25 | 179 | 1.6 | 1.6 | 0.00 | 0.00 | 0.00 | 83 | 1013.9 |
| 20260905121514 | 25 | 179 | 1.6 | 1.6 | 0.00 | 0.00 | 0.00 | 83 | 1013.9 |
| 20260905121009 | 25 | 179 | 1.6 | 1.6 | 0.00 | 0.00 | 0.00 | 83 | 1013.9 |
| 20260905120508 | 25 | 179 | 0.0 | 0.0 | 0.00 | 0.00 | 0.00 | 84 | 1014.1 |
| 20260905120004 | 25 | 179 | 0.0 | 0.0 | 0.00 | 0.00 | 0.00 | 85 | 1014.0 |
| 20260905115503 | 25 | 179 | 0.0 | 0.0 | 0.00 | 0.00 | 0.00 | 86 | 1014.0 |
| 20260905114958 | 25 | 179 | 1.6 | 0.0 | 0.00 | 0.00 | 0.00 | 85 | 1013.8 |
| 20260905114457 | 24 | 179 | 0.0 | 0.0 | 0.00 | 0.00 | 0.00 | 87 | 1013.8 |
| 20260905113956 | 24 | 179 | 0.0 | 0.0 | 0.00 | 0.00 | 0.00 | 87 | 1013.8 |
| 20260905113452 | 23 | 179 | 0.0 | 0.0 | 0.00 | 0.00 | 0.00 | 88 | 1013.7 |
| 20260905112947 | 23 | 179 | 0.0 | 0.0 | 0.00 | 0.00 | 0.00 | 90 | 1013.8 |
| 20260905112442 | 23 | 179 | 0.0 | 0.0 | 0.00 | 0.00 | 0.00 | 92 | 1013.5 |
| 20260905111938 | 22 | 179 | 0.0 | 0.0 | 0.00 | 0.00 | 0.00 | 94 | 1013.2 |
| 20260905111438 | 22 | 179 | 0.0 | 0.0 | 0.00 | 0.00 | 0.00 | 95 | 1013.5 |
| 20260905110932 | 22 | 179 | 0.0 | 0.0 | 0.00 | 0.00 | 0.00 | 95 | 1013.4 |
| 20260905110431 | 22 | 179 | 0.0 | 0.0 | 0.00 | 0.00 | 0.00 | 95 | 1013.1 |
| 20260905105931 | 22 | 179 | 0.0 | 0.0 | 0.00 | 0.00 | 0.00 | 95 | 1013.0 |
| 20260905105426 | 22 | 179 | 0.0 | 0.0 | 0.00 | 0.00 | 0.00 | 94 | 1013.1 |
| 20260905104926 | 22 | 179 | 0.0 | 0.0 | 0.00 | 0.00 | 0.00 | 95 | 1012.9 |
| 20260905104422 | 22 | 179 | 0.0 | 0.0 | 0.00 | 0.00 | 0.00 | 94 | 1012.8 |
| 20260905103921 | 22 | 179 | 0.0 | 0.0 | 0.00 | 0.00 | 0.00 | 94 | 1012.9 |
| 20260905103417 | 22 | 179 | 0.0 | 0.0 | 0.00 | 0.00 | 0.00 | 94 | 1012.7 |
| 20260905102913 | 22 | 179 | 0.0 | 0.0 | 0.00 | 0.00 | 0.00 | 93 | 1012.9 |
| 20260905102409 | 22 | 179 | 0.0 | 0.0 | 0.00 | 0.00 | 0.00 | 93 | 1012.8 |
| 20260905101909 | 23 | 179 | 0.0 | 0.0 | 0.00 | 0.00 | 0.00 | 92 | 1012.8 |
| 20260905101408 | 23 | 179 | 0.0 | 0.0 | 0.00 | 0.00 | 0.00 | 92 | 1012.7 |
| 20260905100903 | 23 | 179 | 0.0 | 0.0 | 0.00 | 0.00 | 0.00 | 92 | 1012.7 |
| 20260905100359 | 23 | 179 | 0.0 | 0.0 | 0.00 | 0.00 | 0.00 | 92 | 1012.6 |
| 20260905095858 | 23 | 179 | 0.0 | 0.0 | 0.00 | 0.00 | 0.00 | 92 | 1012.6 |
| 20260905095353 | 23 | 179 | 0.0 | 0.0 | 0.00 | 0.00 | 0.00 | 92 | 1012.8 |
| 20260905094853 | 23 | 179 | 0.0 | 0.0 | 0.00 | 0.00 | 0.00 | 92 | 1012.7 |
| 20260905094348 | 23 | 179 | 0.0 | 0.0 | 0.00 | 0.00 | 0.00 | 91 | 1012.8 |
| 20260905093847 | 23 | 179 | 0.0 | 0.0 | 0.00 | 0.00 | 0.00 | 91 | 1012.8 |
| 20260905093343 | 23 | 179 | 0.0 | 0.0 | 0.00 | 0.00 | 0.00 | 91 | 1012.7 |